{"data":{"norad_id":67005,"epoch":"2026-09-20T21:13:32.954016Z","epoch_age_seconds":48026,"freshness":"FRESH","line1":"1 67005U 25293C   26263.88440919 -.00001755  00000+0 -13930-3 0  9999","line2":"2 67005  70.0022 322.4031 0003439 267.0701  93.0065 14.98330428 44124","mean_motion":14.98330428,"eccentricity":0.0003439,"inclination_deg":70.0022,"raan_deg":322.4031,"arg_perigee_deg":267.0701,"mean_anomaly_deg":93.0065,"bstar":-0.0001393,"rev_number":4412,"period_min":96.106971672606,"perigee_km":569.66439651001,"apogee_km":574.44473827006,"semimajor_km":6950.19156739,"source":"CELESTRAK","updated_at":"2026-09-21T09:00:36.068508Z"}}